Location: �couen
(49.0206°N, 2.3831°E)
Time: 00:36:49
(UTC+00:00)

ATLAS 3B R/B - Visible Passes

Search period start: 22 May 2022 00:00
Search period end: 01 June 2022 00:00
Orbit: 979 x 1215 km, 63.8° (Epoch: 19 May)

Date Brightness Start Highest point End Pass type
(mag) Time Alt. Az. Time Alt. Az. Time Alt. Az.
22 May 4.2 00:57:09 10° WNW 01:02:06 19° WSW 01:03:36 18° WSW visible
22 May 4.2 20:26:51 10° NW 20:33:12 32° NNE 20:39:50 10° E visible
22 May 3.0 22:17:41 10° NW 22:25:02 78° NE 22:30:15 22° SE visible
23 May 3.8 00:09:00 10° NW 00:15:16 31° WSW 00:17:28 26° SW visible
23 May 3.3 21:30:23 10° NW 21:37:33 57° NE 21:44:10 14° ESE visible
23 May 3.3 23:21:19 10° NW 23:28:17 46° WSW 23:31:23 31° S visible
24 May 3.8 20:43:03 10° NW 20:49:56 43° NNE 20:57:05 10° ESE visible
24 May 3.0 22:33:50 10° NW 22:41:09 68° SW 22:45:21 29° SSE visible
25 May 4.5 00:26:23 10° WNW 00:30:43 17° WSW 00:32:34 15° WSW visible
25 May 2.9 21:46:29 10° NW 21:53:51 86° NE 21:59:21 21° SE visible
25 May 4.1 23:37:59 10° WNW 23:43:55 27° WSW 23:46:35 22° SW visible
26 May 3.2 20:59:09 10° NW 21:06:25 63° NE 21:13:24 12° ESE visible
26 May 3.6 22:50:12 10° NW 22:56:59 41° WSW 23:00:39 25° SSW visible
27 May 3.6 20:11:51 10° NW 20:18:50 47° NE 20:26:05 10° ESE visible
27 May 3.1 22:02:40 10° NW 22:09:53 61° WSW 22:14:44 23° SSE visible
27 May 4.7 23:55:48 10° WNW 23:59:19 14° WSW 00:01:59 12° SW visible
28 May 2.9 21:15:16 10° NW 21:22:39 86° SW 21:28:52 17° SE visible
28 May 4.3 23:07:02 10° WNW 23:12:34 23° WSW 23:16:07 17° SW visible
29 May 3.1 20:27:57 10° NW 20:35:16 69° NE 20:42:51 10° SE visible
29 May 3.8 22:19:06 10° NW 22:25:41 36° WSW 22:30:18 19° SSW visible
30 May 3.3 21:31:30 10° NW 21:38:38 54° WSW 21:44:31 17° SSE visible
30 May 4.9 23:25:36 10° W 23:27:53 12° WSW 23:30:11 10° WSW visible
31 May 3.0 20:44:05 10° NW 20:51:26 78° SW 20:58:47 11° SSE visible
31 May 4.6 22:36:08 10° WNW 22:41:12 20° WSW 22:46:02 11° SSW visible
